Time,TemperatureF,DewpointF,PressureIn,WindDirection,WindDirectionDegrees,WindSpeedMPH,WindSpeedGustMPH,Humidity,HourlyPrecipIn,Conditions,Clouds,dailyrainin,SoftwareType,DateUTC
2013-03-10 00:01:00,22.0,22.0,-100.00,East,100,0.0,2.0,99,-99.99,,,-99.99,,2013-03-10 07:01:00,
2013-03-10 00:11:00,22.0,22.0,-100.00,NW,325,0.0,2.0,99,-99.99,,,-99.99,,2013-03-10 07:11:00,
2013-03-10 00:21:00,21.0,21.0,-100.00,NE,35,1.0,2.0,99,-99.99,,,-99.99,,2013-03-10 07:21:00,
2013-03-10 00:31:00,21.0,20.0,-100.00,NE,35,0.0,1.0,99,-99.99,,,-99.99,,2013-03-10 07:31:00,
2013-03-10 00:41:00,20.0,20.0,-100.00,NE,35,1.0,2.0,99,-99.99,,,-99.99,,2013-03-10 07:41:00,
2013-03-10 00:52:00,19.0,19.0,-100.00,NNE,15,0.0,2.0,99,-99.99,,,-99.99,,2013-03-10 07:52:00,
2013-03-10 01:01:00,19.0,19.0,-100.00,NNW,345,0.0,0.0,99,-99.99,,,-99.99,,2013-03-10 08:01:00,
2013-03-10 01:11:00,19.0,19.0,-100.00,West,275,0.0,2.0,99,-99.99,,,-99.99,,2013-03-10 08:11:00,
2013-03-10 01:21:00,18.0,18.0,-100.00,NW,310,0.0,0.0,99,-99.99,,,-99.99,,2013-03-10 08:21:00,
2013-03-10 01:31:00,18.0,18.0,-100.00,East,100,0.0,0.0,99,-99.99,,,-99.99,,2013-03-10 08:31:00,
2013-03-10 01:42:00,18.0,18.0,-100.00,East,100,0.0,0.0,99,-99.99,,,-99.99,,2013-03-10 08:42:00,
2013-03-10 01:51:00,17.0,17.0,-100.00,North,5,0.0,0.0,99,-99.99,,,-99.99,,2013-03-10 08:51:00,
2013-03-10 03:01:00,16.0,16.0,-100.00,West,275,0.0,0.0,99,-99.99,,,-99.99,,2013-03-10 09:01:00,
2013-03-10 03:11:00,16.0,16.0,-100.00,North,10,0.0,0.0,98,-99.99,,,-99.99,,2013-03-10 09:11:00,
2013-03-10 03:21:00,16.0,15.0,-100.00,NNE,15,0.0,0.0,98,-99.99,,,-99.99,,2013-03-10 09:21:00,
2013-03-10 03:31:00,15.0,15.0,-100.00,NW,320,0.0,0.0,98,-99.99,,,-99.99,,2013-03-10 09:31:00,
2013-03-10 03:41:00,15.0,15.0,-100.00,West,275,1.0,3.0,98,-99.99,,,-99.99,,2013-03-10 09:41:00,
2013-03-10 03:51:00,15.0,15.0,-100.00,North,10,1.0,4.0,98,-99.99,,,-99.99,,2013-03-10 09:51:00,
2013-03-10 04:01:00,15.0,15.0,-100.00,ENE,60,0.0,2.0,98,-99.99,,,-99.99,,2013-03-10 10:01:00,
2013-03-10 04:11:00,15.0,14.0,-100.00,NNE,20,0.0,0.0,98,-99.99,,,-99.99,,2013-03-10 10:11:00,
2013-03-10 04:21:00,15.0,14.0,-100.00,NNW,330,0.0,0.0,98,-99.99,,,-99.99,,2013-03-10 10:21:00,
2013-03-10 04:31:00,14.0,13.0,-100.00,NE,35,0.0,0.0,97,-99.99,,,-99.99,,2013-03-10 10:31:00,
2013-03-10 04:41:00,14.0,13.0,-100.00,NNW,335,0.0,0.0,97,-99.99,,,-99.99,,2013-03-10 10:41:00,
2013-03-10 04:51:00,13.0,13.0,-100.00,North,350,0.0,0.0,97,-99.99,,,-99.99,,2013-03-10 10:51:00,
2013-03-10 05:01:00,14.0,13.0,-100.00,NW,320,0.0,0.0,97,-99.99,,,-99.99,,2013-03-10 11:01:00,
2013-03-10 05:11:00,13.0,13.0,-100.00,NE,40,0.0,0.0,97,-99.99,,,-99.99,,2013-03-10 11:11:00,
2013-03-10 05:21:00,13.0,12.0,-100.00,NE,40,0.0,0.0,96,-99.99,,,-99.99,,2013-03-10 11:21:00,
2013-03-10 05:31:00,13.0,12.0,-100.00,NE,40,0.0,0.0,96,-99.99,,,-99.99,,2013-03-10 11:31:00,
2013-03-10 05:42:00,13.0,12.0,-100.00,NE,40,0.0,0.0,96,-99.99,,,-99.99,,2013-03-10 11:42:00,
2013-03-10 05:52:00,12.0,11.0,-100.00,NE,35,0.0,0.0,96,-99.99,,,-99.99,,2013-03-10 11:52:00,
2013-03-10 06:01:00,12.0,11.0,-100.00,NE,35,0.0,0.0,96,-99.99,,,-99.99,,2013-03-10 12:01:00,
2013-03-10 06:11:00,12.0,11.0,-100.00,North,5,0.0,0.0,96,-99.99,,,-99.99,,2013-03-10 12:11:00,
2013-03-10 06:21:00,12.0,11.0,-100.00,NE,35,0.0,0.0,96,-99.99,,,-99.99,,2013-03-10 12:21:00,
2013-03-10 06:31:00,11.0,10.0,-100.00,NE,35,0.0,0.0,96,-99.99,,,-99.99,,2013-03-10 12:31:00,
2013-03-10 06:42:00,11.0,11.0,-100.00,NNE,15,0.0,0.0,96,-99.99,,,-99.99,,2013-03-10 12:42:00,
2013-03-10 06:51:00,11.0,10.0,-100.00,NNE,15,0.0,0.0,96,-99.99,,,-99.99,,2013-03-10 12:51:00,
2013-03-10 07:01:00,11.0,10.0,-100.00,NNW,340,0.0,0.0,96,-99.99,,,-99.99,,2013-03-10 13:01:00,
2013-03-10 07:11:00,11.0,10.0,-100.00,NNW,340,0.0,0.0,96,-99.99,,,-99.99,,2013-03-10 13:11:00,
2013-03-10 07:21:00,10.0,10.0,-100.00,North,0,0.0,0.0,96,-99.99,,,-99.99,,2013-03-10 13:21:00,
2013-03-10 07:31:00,10.0,9.0,-100.00,North,10,0.0,0.0,95,-99.99,,,-99.99,,2013-03-10 13:31:00,
2013-03-10 07:41:00,10.0,9.0,-100.00,NNE,15,0.0,0.0,95,-99.99,,,-99.99,,2013-03-10 13:41:00,
2013-03-10 07:52:00,10.0,9.0,-100.00,North,10,0.0,0.0,95,-99.99,,,-99.99,,2013-03-10 13:52:00,
2013-03-10 08:01:00,10.0,9.0,-100.00,North,0,0.0,0.0,95,-99.99,,,-99.99,,2013-03-10 14:01:00,
2013-03-10 08:11:00,10.0,9.0,-100.00,North,0,0.0,0.0,95,-99.99,,,-99.99,,2013-03-10 14:11:00,
2013-03-10 08:21:00,10.0,9.0,-100.00,NNE,25,0.0,0.0,95,-99.99,,,-99.99,,2013-03-10 14:21:00,
2013-03-10 08:31:00,10.0,9.0,-100.00,NNE,25,0.0,0.0,95,-99.99,,,-99.99,,2013-03-10 14:31:00,
2013-03-10 08:41:00,11.0,10.0,-100.00,NNE,25,0.0,0.0,95,-99.99,,,-99.99,,2013-03-10 14:41:00,
2013-03-10 08:51:00,12.0,11.0,-100.00,NNE,25,0.0,0.0,95,-99.99,,,-99.99,,2013-03-10 14:51:00,
2013-03-10 09:01:00,13.0,12.0,-100.00,NE,50,2.0,2.0,95,-99.99,,,-99.99,,2013-03-10 15:01:00,
2013-03-10 09:11:00,14.0,13.0,-100.00,ENE,65,0.0,1.0,95,-99.99,,,-99.99,,2013-03-10 15:11:00,
2013-03-10 09:21:00,17.0,16.0,-100.00,NE,50,2.0,4.0,96,-99.99,,,-99.99,,2013-03-10 15:21:00,
2013-03-10 09:31:00,20.0,19.0,-100.00,East,100,1.0,2.0,96,-99.99,,,-99.99,,2013-03-10 15:31:00,
2013-03-10 09:41:00,21.0,20.0,-100.00,NE,55,1.0,2.0,96,-99.99,,,-99.99,,2013-03-10 15:41:00,
2013-03-10 09:51:00,22.0,21.0,-100.00,East,85,1.0,2.0,96,-99.99,,,-99.99,,2013-03-10 15:51:00,
2013-03-10 10:01:00,24.0,23.0,-100.00,ENE,60,1.0,2.0,96,-99.99,,,-99.99,,2013-03-10 16:01:00,
2013-03-10 10:11:00,25.0,23.0,-100.00,NE,45,0.0,2.0,90,-99.99,,,-99.99,,2013-03-10 16:11:00,
2013-03-10 10:21:00,28.0,24.0,-100.00,ENE,75,0.0,2.0,83,-99.99,,,-99.99,,2013-03-10 16:21:00,
2013-03-10 10:31:00,29.0,22.0,-100.00,East,90,0.0,2.0,74,-99.99,,,-99.99,,2013-03-10 16:31:00,
2013-03-10 10:41:00,30.0,21.0,-100.00,ENE,70,0.0,0.0,67,-99.99,,,-99.99,,2013-03-10 16:41:00,
2013-03-10 10:51:00,32.0,21.0,-100.00,ENE,65,0.0,0.0,61,-99.99,,,-99.99,,2013-03-10 16:51:00,
2013-03-10 11:01:00,33.0,19.0,-100.00,SE,135,0.0,0.0,56,-99.99,,,-99.99,,2013-03-10 17:01:00,
2013-03-10 11:11:00,33.0,18.0,-100.00,ENE,75,0.0,0.0,53,-99.99,,,-99.99,,2013-03-10 17:11:00,
2013-03-10 11:21:00,34.0,17.0,-100.00,SE,130,0.0,0.0,50,-99.99,,,-99.99,,2013-03-10 17:21:00,
2013-03-10 11:31:00,35.0,18.0,-100.00,SSE,150,0.0,0.0,49,-99.99,,,-99.99,,2013-03-10 17:31:00,
2013-03-10 11:41:00,35.0,17.0,-100.00,ESE,110,0.0,0.0,46,-99.99,,,-99.99,,2013-03-10 17:41:00,
2013-03-10 11:51:00,37.0,18.0,-100.00,SW,215,1.0,2.0,46,-99.99,,,-99.99,,2013-03-10 17:51:00,
2013-03-10 12:01:00,37.0,18.0,-100.00,SSE,160,1.0,4.0,44,-99.99,,,-99.99,,2013-03-10 18:01:00,
2013-03-10 12:11:00,38.0,17.0,-100.00,South,170,2.0,3.0,43,-99.99,,,-99.99,,2013-03-10 18:11:00,
2013-03-10 12:21:00,39.0,18.0,-100.00,SSE,160,2.0,3.0,42,-99.99,,,-99.99,,2013-03-10 18:21:00,
2013-03-10 12:31:00,40.0,18.0,-100.00,South,185,2.0,4.0,41,-99.99,,,-99.99,,2013-03-10 18:31:00,
2013-03-10 12:41:00,40.0,17.0,-100.00,South,190,2.0,4.0,38,-99.99,,,-99.99,,2013-03-10 18:41:00,
2013-03-10 12:52:00,40.0,16.0,-100.00,SSW,200,1.0,3.0,37,-99.99,,,-99.99,,2013-03-10 18:52:00,
2013-03-10 13:01:00,40.0,16.0,-100.00,ESE,105,2.0,4.0,36,-99.99,,,-99.99,,2013-03-10 19:01:00,
2013-03-10 13:11:00,40.0,15.0,-100.00,SSW,210,3.0,4.0,36,-99.99,,,-99.99,,2013-03-10 19:11:00,
2013-03-10 13:21:00,40.0,15.0,-100.00,SSE,160,2.0,5.0,36,-99.99,,,-99.99,,2013-03-10 19:21:00,
2013-03-10 13:31:00,40.0,15.0,-100.00,SSE,150,2.0,4.0,36,-99.99,,,-99.99,,2013-03-10 19:31:00,
2013-03-10 13:41:00,40.0,15.0,-100.00,South,185,2.0,4.0,36,-99.99,,,-99.99,,2013-03-10 19:41:00,
2013-03-10 13:52:00,40.0,14.0,-100.00,SE,140,2.0,3.0,34,-99.99,,,-99.99,,2013-03-10 19:52:00,
2013-03-10 14:02:00,40.0,14.0,-100.00,East,90,2.0,4.0,34,-99.99,,,-99.99,,2013-03-10 20:02:00,
2013-03-10 14:12:00,40.0,16.0,-100.00,SW,225,3.0,6.0,36,-99.99,,,-99.99,,2013-03-10 20:12:00,
2013-03-10 14:22:00,40.0,15.0,-100.00,ESE,105,2.0,6.0,34,-99.99,,,-99.99,,2013-03-10 20:22:00,
2013-03-10 14:32:00,42.0,17.0,-100.00,South,190,3.0,4.0,36,-99.99,,,-99.99,,2013-03-10 20:32:00,
2013-03-10 14:42:00,42.0,17.0,-100.00,SSW,200,3.0,8.0,36,-99.99,,,-99.99,,2013-03-10 20:42:00,
2013-03-10 14:52:00,41.0,16.0,-100.00,South,175,4.0,7.0,34,-99.99,,,-99.99,,2013-03-10 20:52:00,
2013-03-10 15:02:00,42.0,17.0,-100.00,SSW,200,3.0,6.0,35,-99.99,,,-99.99,,2013-03-10 21:02:00,
2013-03-10 15:12:00,42.0,16.0,-100.00,SSE,160,2.0,7.0,34,-99.99,,,-99.99,,2013-03-10 21:12:00,
2013-03-10 15:22:00,42.0,15.0,-100.00,ESE,120,1.0,4.0,32,-99.99,,,-99.99,,2013-03-10 21:22:00,
2013-03-10 15:32:00,42.0,16.0,-100.00,SE,135,2.0,4.0,33,-99.99,,,-99.99,,2013-03-10 21:32:00,
2013-03-10 15:42:00,44.0,16.0,-100.00,South,180,2.0,6.0,32,-99.99,,,-99.99,,2013-03-10 21:42:00,
2013-03-10 15:52:00,44.0,16.0,-100.00,SSW,210,3.0,6.0,32,-99.99,,,-99.99,,2013-03-10 21:52:00,
2013-03-10 16:02:00,45.0,17.0,-100.00,SW,215,4.0,6.0,32,-99.99,,,-99.99,,2013-03-10 22:02:00,
2013-03-10 16:12:00,45.0,17.0,-100.00,WSW,240,2.0,9.0,31,-99.99,,,-99.99,,2013-03-10 22:12:00,
2013-03-10 16:22:00,45.0,17.0,-100.00,SW,220,7.0,11.0,32,-99.99,,,-99.99,,2013-03-10 22:22:00,
2013-03-10 16:32:00,45.0,17.0,-100.00,SW,215,7.0,11.0,32,-99.99,,,-99.99,,2013-03-10 22:32:00,
2013-03-10 16:42:00,44.0,17.0,-100.00,SW,235,7.0,11.0,32,-99.99,,,-99.99,,2013-03-10 22:42:00,
2013-03-10 16:52:00,44.0,17.0,-100.00,SW,235,7.0,11.0,32,-99.99,,,-99.99,,2013-03-10 22:52:00,
2013-03-10 17:02:00,43.0,17.0,-100.00,SSW,210,6.0,11.0,33,-99.99,,,-99.99,,2013-03-10 23:02:00,
2013-03-10 17:12:00,43.0,16.0,-100.00,SSW,210,6.0,10.0,33,-99.99,,,-99.99,,2013-03-10 23:12:00,
2013-03-10 17:22:00,42.0,16.0,-100.00,SW,220,4.0,11.0,34,-99.99,,,-99.99,,2013-03-10 23:22:00,
2013-03-10 17:32:00,41.0,15.0,-100.00,SW,220,6.0,9.0,34,-99.99,,,-99.99,,2013-03-10 23:32:00,
2013-03-10 17:42:00,40.0,15.0,-100.00,SW,230,7.0,12.0,36,-99.99,,,-99.99,,2013-03-10 23:42:00,
2013-03-10 17:52:00,39.0,15.0,-100.00,SW,215,6.0,9.0,38,-99.99,,,-99.99,,2013-03-10 23:52:00,
2013-03-10 18:02:00,38.0,16.0,-100.00,SSW,205,4.0,10.0,39,-99.99,,,-99.99,,2013-03-11 00:02:00,
2013-03-10 18:12:00,38.0,16.0,-100.00,SW,220,3.0,7.0,40,-99.99,,,-99.99,,2013-03-11 00:12:00,
2013-03-10 18:22:00,37.0,17.0,-100.00,SW,230,4.0,7.0,42,-99.99,,,-99.99,,2013-03-11 00:22:00,
2013-03-10 18:32:00,37.0,18.0,-100.00,North,0,1.0,7.0,44,-99.99,,,-99.99,,2013-03-11 00:32:00,
2013-03-10 18:42:00,37.0,18.0,-100.00,East,80,1.0,4.0,45,-99.99,,,-99.99,,2013-03-11 00:42:00,
2013-03-10 18:52:00,37.0,19.0,-100.00,NE,45,0.0,2.0,48,-99.99,,,-99.99,,2013-03-11 00:52:00,
2013-03-10 19:02:00,36.0,19.0,-100.00,SW,220,1.0,4.0,51,-99.99,,,-99.99,,2013-03-11 01:02:00,
2013-03-10 19:12:00,35.0,20.0,-100.00,NW,325,2.0,3.0,54,-99.99,,,-99.99,,2013-03-11 01:12:00,
2013-03-10 19:22:00,34.0,20.0,-100.00,SW,225,0.0,2.0,57,-99.99,,,-99.99,,2013-03-11 01:22:00,
2013-03-10 19:32:00,33.0,22.0,-100.00,NW,310,2.0,2.0,61,-99.99,,,-99.99,,2013-03-11 01:32:00,
2013-03-10 19:42:00,33.0,22.0,-100.00,NNW,330,0.0,2.0,64,-99.99,,,-99.99,,2013-03-11 01:42:00,
2013-03-10 19:52:00,32.0,23.0,-100.00,North,0,0.0,1.0,67,-99.99,,,-99.99,,2013-03-11 01:52:00,
2013-03-10 20:02:00,31.0,23.0,-100.00,ENE,60,0.0,1.0,70,-99.99,,,-99.99,,2013-03-11 02:02:00,
2013-03-10 20:12:00,31.0,23.0,-100.00,ENE,65,0.0,1.0,73,-99.99,,,-99.99,,2013-03-11 02:12:00,
2013-03-10 20:22:00,30.0,23.0,-100.00,NE,45,0.0,2.0,75,-99.99,,,-99.99,,2013-03-11 02:22:00,
2013-03-10 20:32:00,30.0,24.0,-100.00,SW,235,0.0,2.0,77,-99.99,,,-99.99,,2013-03-11 02:32:00,
2013-03-10 20:42:00,29.0,24.0,-100.00,SW,235,1.0,1.0,80,-99.99,,,-99.99,,2013-03-11 02:42:00,
2013-03-10 20:52:00,29.0,24.0,-100.00,SW,220,0.0,1.0,81,-99.99,,,-99.99,,2013-03-11 02:52:00,
2013-03-10 21:02:00,29.0,24.0,-100.00,SW,220,0.0,1.0,83,-99.99,,,-99.99,,2013-03-11 03:02:00,
2013-03-10 21:12:00,28.0,24.0,-100.00,SW,220,0.0,1.0,85,-99.99,,,-99.99,,2013-03-11 03:12:00,
2013-03-10 21:22:00,28.0,24.0,-100.00,North,5,0.0,2.0,86,-99.99,,,-99.99,,2013-03-11 03:22:00,
2013-03-10 21:32:00,28.0,24.0,-100.00,NNE,20,2.0,3.0,87,-99.99,,,-99.99,,2013-03-11 03:32:00,
2013-03-10 21:42:00,27.0,24.0,-100.00,NE,40,0.0,2.0,87,-99.99,,,-99.99,,2013-03-11 03:42:00,
2013-03-10 21:52:00,27.0,24.0,-100.00,ENE,60,0.0,2.0,88,-99.99,,,-99.99,,2013-03-11 03:52:00,
2013-03-10 22:02:00,27.0,24.0,-100.00,ENE,60,0.0,1.0,88,-99.99,,,-99.99,,2013-03-11 04:02:00,
2013-03-10 22:12:00,27.0,24.0,-100.00,NE,45,1.0,2.0,89,-99.99,,,-99.99,,2013-03-11 04:12:00,
2013-03-10 22:22:00,27.0,24.0,-100.00,NNE,25,0.0,2.0,89,-99.99,,,-99.99,,2013-03-11 04:22:00,
2013-03-10 22:32:00,26.0,24.0,-100.00,NNE,25,0.0,1.0,90,-99.99,,,-99.99,,2013-03-11 04:32:00,
2013-03-10 22:42:00,26.0,24.0,-100.00,NNE,25,0.0,1.0,90,-99.99,,,-99.99,,2013-03-11 04:42:00,
2013-03-10 22:52:00,26.0,24.0,-100.00,NNE,20,0.0,1.0,90,-99.99,,,-99.99,,2013-03-11 04:52:00,
2013-03-10 23:02:00,26.0,24.0,-100.00,NNE,20,0.0,1.0,91,-99.99,,,-99.99,,2013-03-11 05:02:00,
2013-03-10 23:11:00,26.0,24.0,-100.00,ENE,60,2.0,4.0,91,-99.99,,,-99.99,,2013-03-11 05:11:00,
2013-03-10 23:22:00,25.0,23.0,-100.00,North,5,0.0,1.0,92,-99.99,,,-99.99,,2013-03-11 05:22:00,
2013-03-10 23:32:00,25.0,23.0,-100.00,North,5,0.0,1.0,92,-99.99,,,-99.99,,2013-03-11 05:32:00,
2013-03-10 23:42:00,25.0,23.0,-100.00,North,0,0.0,1.0,92,-99.99,,,-99.99,,2013-03-11 05:42:00,
2013-03-10 23:52:00,25.0,23.0,-100.00,North,5,1.0,2.0,92,-99.99,,,-99.99,,2013-03-11 05:52:00,